Regional Weather Roundup
Issued by NWS

Home | Current Version | Previous Version | Graphics & Text | Print | Product List | Glossary On
Versions: 1 2 3 4 5 6 7 8 9 10 11 12 13 14 15 16 17 18 19 20 21 22 23 24 25 26 27 28 29 30 31 32 33 34 35 36 37 38 39 40 41 42 43 44 45 46 47 48 49 50
000
ASUS43 KBIS 191510
RWRND

NORTH DAKOTA REGIONAL WEATHER ROUNDUP
NATIONAL WEATHER SERVICE BISMARCK ND
1000 AM CDT THU APR 19 2018

NOTE: "FAIR" INDICATES FEW OR NO CLOUDS BELOW 12,000 FEET WITH NO
SIGNIFICANT WEATHER AND/OR OBSTRUCTIONS TO VISIBILITY.


NDZ001>003-009>011-017-191600-
NORTHWEST NORTH DAKOTA

CITY           SKY/WX    TMP DP  RH WIND       PRES   REMARKS
WILLISTON      CLOUDY    37  35  92 SE7       30.41R FOG
MINOT          CLOUDY    38  35  89 N7        30.41R FOG
MINOT AFB      FOG       34  34  99 NW8       30.41R VSB 5/8
$$

NDZ018>021-031>035-040>046-191600-
SOUTHWEST NORTH DAKOTA

CITY           SKY/WX    TMP DP  RH WIND       PRES   REMARKS
BISMARCK       FOG       32  32 100 CALM      30.43S VSB 3/4
DICKINSON      FOG       35  35 100 E3        30.35S VSB<1/4
GARRISON         N/A     36  33  89 NW3       30.41R
HETTINGER ARPT SUNNY     42  33  70 SE6       30.38R
$$

NDZ004>008-012>016-024-026-027-054-191600-
NORTHEAST NORTH DAKOTA

CITY           SKY/WX    TMP DP  RH WIND       PRES   REMARKS
GRAND FORKS    FAIR      43  27  53 CALM      30.40S
GRND FRKS AFB  FAIR      49  27  42 CALM      30.40R
DEVILS LAKE    FAIR      38  32  79 NW3       30.41S
$$

NDZ022-023-025-028>030-036>039-047>053-191600-
SOUTHEAST NORTH DAKOTA

CITY           SKY/WX    TMP DP  RH WIND       PRES   REMARKS
FARGO          FAIR      45  28  51 CALM      30.41S
JAMESTOWN      SUNNY     42  33  70 N5        30.40S
$$





USA.gov is the U.S. government's official web portal to all federal, state and local government web resources and services.